ATLAS CENTAUR 2

Last updated on Fri Jul 11 2025 00:02:12 GMT+0000 (Coordinated Universal Time)

1 00694U 63047A 25191.45094585 .00001662 00000+0 19456-3 0 9999 2 00694 30.3524 108.0839 0552500 107.5175 258.6550 14.10869882 97374
UTC large
Height (km)
Speed (km/s)
/
Latitude / Longitude
Inclination (degrees)
Orbital Period (minutes)
Azimuth
Elevation
Range (km)
Doppler Factor

Next 0 passes for location: London (51.5072 / 0.1276)

Sorry there are no passes over London.